This demonstration page uses our WeatherBlox Daily Observations layout. Learn more.

Left ArrowRight Arrow

Hourly Observations for September 9, 2022

Temp ( °F °C ) Dew Point ( °F °C ) Humidity (%) Winds ( mph kmh ) Pressure ( in mb ) Visibility ( mi km ) Precip ( " mm )
12:55 am 00:55 Clear 72 22.1 59 15.2 65 65 SSE 12 19 29.76 1008 10 16 0.00 0.00
1:58 am 01:58 Clear 72 22 59 15 65 65 SSE 12 19 29.76 1008 10 16 0.00 0.00
2:55 am 02:55 Clear 67 19.4 58 14.6 74 74 SE 7 11 29.78 1008 10 16 0.00 0.00
3:55 am 03:55 Clear 66 18.9 58 14.2 74 74 SSE 6 9 29.79 1009 10 16 0.00 0.00
4:55 am 04:55 Clear 64 17.9 58 14.4 80 80 ESE 3 6 29.80 1009 10 16 0.00 0.00
5:55 am 05:55 Clear 65 18.1 58 14.2 78 78 SSE 6 9 29.81 1010 10 16 0.00 0.00
6:55 am 06:55 Clear 62 16.7 57 14 84 84 ESE 5 7 29.81 1010 9 14 0.00 0.00
7:55 am 07:55 Sunny 64 17.9 58 14.4 80 80 Calm 29.83 1010 10 16 0.00 0.00
8:55 am 08:55 Sunny 67 19.4 59 14.8 75 75 S 6 9 29.82 1010 10 16 0.00 0.00
9:55 am 09:55 Sunny 71 21.5 59 15.1 67 67 SW 8 13 29.84 1011 9 14 0.00 0.00
10:55 am 10:55 Sunny 75 23.9 60 15.6 60 60 S 6 9 29.84 1011 10 16 0.00 0.00
11:55 am 11:55 Sunny 78 25.7 60 15.4 53 53 WNW 13 20 29.86 1011 9 14 0.00 0.00
12:55 pm 12:55 Mostly Sunny 79 25.9 61 15.9 54 54 NW 14 22 29.87 1012 9 14 0.00 0.00
1:55 pm 13:55 Sunny 80 26.5 61 16.1 53 53 ENE 9 15 29.80 1009 10 16 0.00 0.00
2:55 pm 14:55 Mostly Sunny 81 27.3 62 16.6 52 52 Calm 29.82 1010 10 16 0.00 0.00
3:55 pm 15:55 Mostly Cloudy 83 28.6 62 16.5 48 48 WNW 8 13 29.84 1011 10 16 0.00 0.00
4:55 pm 16:55 Mostly Cloudy 81 27.4 61 16.3 51 51 N 14 22 29.86 1011 10 16 0.00 0.00
5:55 pm 17:55 Mostly Cloudy 73 22.9 59 15 61 61 N 22 35 29.91 1013 10 16 0.00 0.00
6:55 pm 18:55 Mostly Cloudy 71 21.4 56 13.6 61 61 NNE 12 19 29.92 1013 10 16 0.00 0.00
7:55 pm 19:55 Mostly Cloudy 68 20.2 55 12.7 62 62 N 12 19 29.94 1014 10 16 0.00 0.00
8:55 pm 20:55 undefined 68 19.9 53 11.6 59 59 N 15 24 29.98 1015 10 16 0.00 0.00
9:55 pm 21:55 Mostly Cloudy 65 18.6 53 11.6 64 64 N 9 15 30.01 1016 10 16 0.00 0.00
10:55 pm 22:55 Mostly Cloudy 64 18 52 11.3 65 65 NNE 12 19 30.02 1017 10 16 0.00 0.00
11:55 pm 23:55 Mostly Clear 63 17.2 53 11.9 71 71 N 7 11 30.03 1017 10 16 0.00 0.00

Powered by AerisWeather